Погода в Ракошине

Украина / Закарпатская область     48°28′04″N   22°35′44″E
темп.,
°C
ветер,
м/с
пор.,
м/с
влажн.,
%
обл.,
%
осадки,
мм/ч
давл.,
гПа
погр.,
м
17 мая, вт
вт1700:00+13св2278100 0.0 101814
03:00+12всв2276100 0.0 101816
06:00+11всв2180100 0.2 101712
09:00+16ю1170100 0.2 1017186
12:00+18ююз2269100 0.1 1017512
15:00+19з2375100 1.7 1015281
18:00+14с3696100 7.0 1015286
21:00+12с3791100 8.4 1016231
18 мая, ср
ср1800:00+10с4989100 0.0 1019192
03:00+6с3683100 0.0 102183
06:00+4с34840 0.0 102355
09:00+10с59560 0.0 10261103
12:00+14ссв58360 0.0 10271915
15:00+17ссв46350 0.0 10272103
18:00+17ссв35430 0.0 10261809
21:00+10ссв33570 0.0 102841
19 мая, чт
чт1900:00+7ссв33640 0.0 103031
03:00+6ссв33690 0.0 103029
06:00+5св22765 0.0 103114
09:00+11ююв11615 0.0 1031297
12:00+16ююз21515 0.0 1031800
15:00+18юз22435 0.0 10301096
18:00+19ююз11485 0.0 10281063
21:00+13вюв216750 0.0 102810
20 мая, пт
пт2000:00+10в22735 0.0 102815
03:00+9в2275100 0.0 102815
06:00+8вюв227899 0.0 102821
09:00+13юв2367100 0.0 1028293
12:00+17ю345833 0.0 1027807
15:00+21ю3548100 0.0 10241337
18:00+21юз345017 0.0 10231265
21:00+16вюв22695 0.0 102112
21 мая, сб
сб2100:00+13вюв3375100 0.0 102043
03:00+12в2279100 0.0 101924
06:00+11вюв2380100 0.0 101832
09:00+15юв35687 0.0 1017367
12:00+20ююв33605 0.0 1016872
15:00+23ююв2356100 0.0 10141149
18:00+23всв115984 0.1 1013976
21:00+18с3386100 0.6 101251